When you browse on this site, cookies collect data to enhance your experience and personalize the content and advertising you see.
Visit our Privacy Policy to learn more. By continuing to use the site, you agree to this use of cookies and data.
  • In Hungary
  • List of Countries
  • For 7 days
  • Water Temperature
  • Weather Map
  • News
  • Weather Widgets
  • user-avatar
    Login

    Hourly Weather Voronki

    Today, 29 January, Wednesday

    Time Temperature Precipitation Wind Pressure Humidity
    00:00 -6°C° 0 mm 3 mps 738 mmHg 95%
    01:00 -6°C° 0 mm 3 mps 738 mmHg 96%
    02:00 -5°C° 0 mm 3 mps 738 mmHg 96%
    03:00 -4°C° 0 mm 3 mps 738 mmHg 98%
    04:00 -2°C° 0 mm 3 mps 738 mmHg 98%
    05:00 -2°C° 0 mm 3 mps 738 mmHg 97%
    06:00 -2°C° 0 mm 3 mps 737 mmHg 97%
    07:00 -2°C° 0 mm 3 mps 737 mmHg 96%
    08:00 -4°C° 0 mm 3 mps 737 mmHg 96%
    09:00 -4°C° 0 mm 3 mps 737 mmHg 96%
    10:00 -4°C° 0 mm 3 mps 737 mmHg 96%
    11:00 -4°C° 0 mm 3 mps 737 mmHg 95%
    12:00 -4°C° 0 mm 3 mps 736 mmHg 95%
    13:00 -2°C° 0 mm 3 mps 736 mmHg 96%
    14:00 -2°C° 0 mm 3 mps 736 mmHg 97%
    15:00 -1°C° 0 mm 3 mps 736 mmHg 98%
    16:00 -1°C° 0 mm 3 mps 736 mmHg 98%
    17:00 -1°C° 0 mm 3 mps 735 mmHg 98%
    18:00 0°C° 0 mm 3 mps 735 mmHg 98%
    19:00 0°C° 0 mm 3 mps 735 mmHg 98%
    20:00 -1°C° 0 mm 4 mps 734 mmHg 99%
    21:00 -1°C° 0 mm 4 mps 734 mmHg 99%
    22:00 -1°C° 0.1 mm 4 mps 734 mmHg 99%
    23:00 -1°C° 0.1 mm 4 mps 733 mmHg 98%

    Tomorrow, 30 January, Thursday

    Time Temperature Precipitation Wind Pressure Humidity
    00:00 -1°C° 0.1 mm 4 mps 733 mmHg 98%
    01:00 -1°C° 0.1 mm 4 mps 732 mmHg 98%
    02:00 0°C° 0.1 mm 3 mps 732 mmHg 98%
    03:00 0°C° 0.1 mm 3 mps 732 mmHg 98%
    04:00 -1°C° 0 mm 4 mps 731 mmHg 98%
    05:00 -1°C° 0 mm 4 mps 731 mmHg 98%
    06:00 -1°C° 0 mm 4 mps 730 mmHg 98%
    07:00 -1°C° 0.1 mm 5 mps 730 mmHg 98%
    08:00 -1°C° 0.1 mm 5 mps 729 mmHg 99%
    09:00 -2°C° 0.1 mm 6 mps 729 mmHg 99%
    10:00 -2°C° 0.5 mm 6 mps 729 mmHg 97%
    11:00 -3°C° 0.5 mm 6 mps 729 mmHg 95%
    12:00 -3°C° 0.5 mm 6 mps 729 mmHg 93%
    13:00 -3°C° 0 mm 6 mps 729 mmHg 91%
    14:00 -2°C° 0 mm 5 mps 729 mmHg 90%
    15:00 -2°C° 0 mm 5 mps 729 mmHg 88%
    16:00 -2°C° 0 mm 5 mps 729 mmHg 88%
    17:00 -2°C° 0 mm 5 mps 729 mmHg 88%
    18:00 -4°C° 0 mm 5 mps 729 mmHg 88%
    19:00 -4°C° 0 mm 5 mps 729 mmHg 90%
    20:00 -4°C° 0 mm 6 mps 729 mmHg 93%
    21:00 -4°C° 0 mm 6 mps 728 mmHg 95%
    22:00 -4°C° 0.2 mm 6 mps 728 mmHg 95%
    23:00 -4°C° 0.2 mm 6 mps 727 mmHg 95%

    Day after tomorrow, 31 January, Friday

    Time Temperature Precipitation Wind Pressure Humidity
    00:00 -3°C° 0.2 mm 6 mps 727 mmHg 95%
    01:00 -4°C° 0.3 mm 6 mps 727 mmHg 96%
    02:00 -4°C° 0.3 mm 5 mps 727 mmHg 96%
    03:00 -4°C° 0.3 mm 5 mps 727 mmHg 97%
    04:00 -2°C° 0.2 mm 3 mps 726 mmHg 97%
    05:00 -3°C° 0.2 mm 2 mps 726 mmHg 97%
    06:00 -1°C° 0.2 mm 1 mps 726 mmHg 98%
    07:00 -3°C° 0 mm 2 mps 726 mmHg 97%
    08:00 -3°C° 0 mm 2 mps 727 mmHg 97%
    09:00 -3°C° 0 mm 2 mps 727 mmHg 97%
    10:00 -4°C° 0.1 mm 3 mps 727 mmHg 96%
    11:00 -3°C° 0.1 mm 4 mps 728 mmHg 95%
    12:00 -4°C° 0.1 mm 5 mps 728 mmHg 94%
    13:00 -4°C° 0.1 mm 5 mps 729 mmHg 93%
    14:00 -4°C° 0.1 mm 5 mps 729 mmHg 92%
    15:00 -3°C° 0.1 mm 4 mps 730 mmHg 91%
    16:00 -3°C° 0 mm 4 mps 730 mmHg 92%
    17:00 -2°C° 0 mm 3 mps 730 mmHg 93%
    18:00 -4°C° 0 mm 3 mps 731 mmHg 94%
    19:00 -3°C° 0 mm 2 mps 731 mmHg 93%
    20:00 -3°C° 0 mm 2 mps 732 mmHg 93%
    21:00 -4°C° 0 mm 2 mps 732 mmHg 92%
    22:00 -2°C° 0 mm 1 mps 733 mmHg 92%
    23:00 -2°C° 0 mm 1 mps 733 mmHg 91%

    1 February, Saturday

    Time Temperature Precipitation Wind Pressure Humidity
    00:00 -3°C° 0 mm 1 mps 733 mmHg 91%
    01:00 -3°C° 0 mm 1 mps 733 mmHg 91%
    02:00 -3°C° 0 mm 1 mps 734 mmHg 91%
    03:00 -3°C° 0 mm 1 mps 734 mmHg 91%
    04:00 -3°C° 0 mm 1 mps 734 mmHg 91%
    05:00 -3°C° 0 mm 1 mps 735 mmHg 91%
    06:00 -3°C° 0 mm 1 mps 735 mmHg 91%
    07:00 -3°C° 0 mm 1 mps 735 mmHg 91%
    08:00 -3°C° 0 mm 1 mps 736 mmHg 91%
    09:00 -3°C° 0 mm 1 mps 736 mmHg 91%
    10:00 -2°C° 0 mm 1 mps 736 mmHg 90%
    11:00 -2°C° 0 mm 1 mps 737 mmHg 90%
    12:00 -1°C° 0 mm 1 mps 737 mmHg 89%
    13:00 -1°C° 0 mm 1 mps 737 mmHg 90%
    14:00 -1°C° 0 mm 1 mps 737 mmHg 92%
    15:00 -3°C° 0 mm 2 mps 737 mmHg 93%
    16:00 -4°C° 0 mm 2 mps 737 mmHg 93%
    17:00 -4°C° 0 mm 2 mps 737 mmHg 94%
    18:00 -5°C° 0 mm 2 mps 737 mmHg 94%
    19:00 -4°C° 0 mm 2 mps 738 mmHg 94%
    20:00 -4°C° 0 mm 2 mps 738 mmHg 94%
    21:00 -5°C° 0 mm 3 mps 738 mmHg 93%
    22:00 -5°C° 0 mm 3 mps 738 mmHg 93%
    23:00 -5°C° 0 mm 3 mps 737 mmHg 94%

    2 February, Sunday

    Time Temperature Precipitation Wind Pressure Humidity
    00:00 -5°C° 0 mm 4 mps 737 mmHg 94%
    01:00 -5°C° 0 mm 4 mps 737 mmHg 93%
    02:00 -4°C° 0 mm 4 mps 737 mmHg 93%
    03:00 -4°C° 0 mm 4 mps 737 mmHg 93%
    04:00 -5°C° 0 mm 5 mps 737 mmHg 93%
    05:00 -5°C° 0 mm 5 mps 736 mmHg 93%
    06:00 -4°C° 0 mm 6 mps 736 mmHg 92%
    07:00 -4°C° 0 mm 6 mps 736 mmHg 93%
    08:00 -4°C° 0 mm 6 mps 735 mmHg 93%
    09:00 -4°C° 0 mm 6 mps 735 mmHg 94%
    10:00 -3°C° 0.1 mm 6 mps 735 mmHg 95%
    11:00 -3°C° 0.1 mm 6 mps 734 mmHg 96%
    12:00 -3°C° 0.1 mm 7 mps 734 mmHg 97%
    13:00 -3°C° 0.2 mm 7 mps 734 mmHg 98%
    14:00 -2°C° 0.2 mm 6 mps 733 mmHg 99%
    15:00 -2°C° 0.2 mm 6 mps 733 mmHg 99%
    16:00 -1°C° 0.4 mm 6 mps 732 mmHg 99%
    17:00 -1°C° 0.4 mm 6 mps 732 mmHg 99%
    18:00 -1°C° 0.4 mm 6 mps 731 mmHg 98%
    19:00 -1°C° 0.4 mm 6 mps 731 mmHg 98%
    20:00 -1°C° 0.4 mm 6 mps 731 mmHg 98%
    21:00 -1°C° 0.4 mm 6 mps 731 mmHg 98%
    22:00 0°C° 0 mm 5 mps 731 mmHg 98%
    23:00 -1°C° 0 mm 5 mps 731 mmHg 97%

    3 February, Monday

    Time Temperature Precipitation Wind Pressure Humidity
    00:00 -1°C° 0 mm 5 mps 731 mmHg 96%
    01:00 -1°C° 0 mm 5 mps 731 mmHg 95%
    02:00 -2°C° 0 mm 5 mps 731 mmHg 94%
    03:00 -4°C° 0 mm 5 mps 731 mmHg 93%
    04:00 -4°C° 0 mm 5 mps 730 mmHg 93%
    05:00 -4°C° 0 mm 5 mps 730 mmHg 93%
    06:00 -4°C° 0 mm 5 mps 730 mmHg 93%
    07:00 -2°C° 0 mm 5 mps 730 mmHg 95%
    08:00 -2°C° 0 mm 5 mps 730 mmHg 96%
    09:00 -2°C° 0 mm 5 mps 730 mmHg 97%
    10:00 -2°C° 0.1 mm 5 mps 730 mmHg 96%
    11:00 -2°C° 0.1 mm 5 mps 730 mmHg 95%
    12:00 -2°C° 0.1 mm 5 mps 730 mmHg 94%
    13:00 -2°C° 0 mm 5 mps 730 mmHg 93%
    14:00 -2°C° 0 mm 5 mps 730 mmHg 92%
    15:00 -1°C° 0 mm 5 mps 730 mmHg 90%
    16:00 -2°C° 0 mm 5 mps 730 mmHg 90%
    17:00 -2°C° 0 mm 5 mps 730 mmHg 90%
    18:00 -3°C° 0 mm 4 mps 730 mmHg 90%
    19:00 -3°C° 0 mm 4 mps 731 mmHg 90%
    20:00 -3°C° 0 mm 4 mps 731 mmHg 91%
    21:00 -3°C° 0 mm 4 mps 731 mmHg 92%
    22:00 -3°C° 0 mm 4 mps 731 mmHg 90%
    23:00 -3°C° 0 mm 4 mps 732 mmHg 88%
    Show more